Tracking 18844 objects as of 21-Nov-2017
HD Live streaming from Space Station
objects crossing your sky now

FENGYUN 1C DEB

Track FENGYUN 1C DEB now!
10-day predictions


NORAD ID: 29820
Int'l Code: 1999-025DN
Perigee: 854.4 km
Apogee: 953.4 km
Inclination: 99.1 °
Period: 102.9 minutes
Semi major axis: 7274 km
RCS: 0.0938 m2 (small)
Launch date: May 10, 1999
Source: People's Republic of China (PRC)
Launch site: Taiyaun Space Center, China (TSC)

Note: This is SATELLITE DEBRIS
aabbcc
Your satellite tracking list
Your tracking list is empty




NASA's NSSDC Master Catalog

Two Line Element Set (TLE):
1 29820U 99025DN  17325.04797182  .00000050  00000-0  63770-4 0  9994
2 29820  99.0981 353.5160 0068035  99.9435 313.3021 13.99153852553702
Source of the keplerian elements: AFSPC